Vorticity
2 3 3 3 5 7 6 7 6 5 5 7 8 7 7 10 11 11 9 7 7 6 6 7 7 7 7 7 6 5 4 4 5 6 5 5 5 5 6 5 5 5 5
1 2 2 4 5 6 6 7 6 6 5 5 5 7 8 7 8 10 9 7 7 6 7 7 7 7 6 6 5 5 4 4 5 6 6 5 4 5 5 5 5 5 5
2 3 7 5 5 5 4 5 6 6 6 6 5 5 6 9 7 7 8 8 7 6 6 6 7 6 5 5 5 5 5 5 5 4 4 4 5 6 6 5 5 5 5
3 3 6 5 5 3 3 3 5 6 7 6 6 6 5 6 7 7 6 6 5 5 5 5 5 5 6 6 6 5 5 5 5 5 5 5 5 6 6 7 6 6 5
2 5 4 5 5 4 3 2 4 5 6 7 7 8 9 6 7 6 7 7 6 6 5 5 5 5 6 6 6 6 6 5 6 7 7 7 8 9 8 7 6 6 6
2 3 4 5 4 4 4 3 4 5 4 6 8 9 10 10 8 6 7 6 7 7 7 7 6 7 7 6 7 7 7 8 8 9 8 8 6 5 6 7 6 6 5
3 3 4 4 3 3 5 3 4 5 3 5 7 8 9 11 11 10 9 8 7 8 8 8 9 9 9 9 8 8 7 7 6 6 7 6 7 7 7 6 7 7 7
2 3 4 3 3 3 4 2 3 5 4 4 6 6 6 8 10 11 8 7 8 7 7 7 7 7 7 7 7 6 6 7 7 7 7 8 9 9 10 10 10 10 8
4 4 4 3 3 3 4 3 3 4 4 3 5 6 5 6 7 7 9 9 9 9 8 8 7 7 6 7 7 7 8 7 7 7 6 6 7 7 6 5 4 5 6
4 4 4 3 3 2 4 3 3 4 4 3 5 5 5 5 5 5 5 5 5 4 4 4 4 4 6 6 6 6 6 6 7 7 6 7 6 6 7 7 8 9 8
9 7 5 4 3 2 4 4 3 2 4 4 4 5 5 6 5 4 4 4 4 5 5 6 6 7 6 6 6 6 6 6 5 5 4 4 5 5 6 7 7 6 3
5 6 5 5 4 3 5 4 3 2 3 5 3 5 4 4 6 5 5 4 5 5 5 6 6 6 6 5 5 5 5 4 4 4 5 6 6 6 7 6 6 7 7
3 0 3 5 6 5 6 3 2 1 2 4 3 4 5 5 5 5 5 5 5 5 6 6 6 5 4 5 5 5 5 6 6 5 6 6 6 6 6 6 5 5 5
0 5 5 2 4 6 7 5 2 1 2 3 4 3 5 6 6 6 4 5 5 6 6 6 5 5 5 5 5 6 5 5 5 6 8 9 9 9 10 9 10 12 10
7 4 3 4 5 6 7 7 3 1 2 2 3 4 5 8 8 6 5 6 5 6 6 5 5 6 5 6 6 5 4 7 10 12 11 9 8 7 7 8 8 8 9
4 8 6 1 -0 -0 5 7 6 2 1 2 3 4 6 9 8 6 5 5 5 6 6 6 5 6 6 5 5 7 12 13 9 7 7 7 7 6 6 6 7 7 7
-1 5 2 4 3 2 4 7 5 3 3 3 4 5 6 8 7 4 5 5 6 6 6 5 6 6 5 6 9 12 7 5 8 7 7 7 7 8 8 9 9 9 8
14 11 8 1 3 4 4 6 5 3 5 5 6 6 7 9 6 7 5 6 6 6 5 5 5 6 7 10 11 6 8 6 7 8 6 7 8 8 8 7 7 7 8
10 13 12 14 12 10 5 7 7 7 6 7 8 7 8 9 9 5 6 7 5 5 5 5 6 8 12 9 7 7 8 7 7 7 7 7 7 8 5 6 6 5 5
9 17 10 18 10 6 7 9 7 8 6 8 7 7 9 9 6 7 6 6 5 4 5 6 8 11 9 8 9 8 8 7 7 6 7 9 8 5 6 6 6 5 7
16 10 3 4 10 13 12 9 5 8 9 10 8 8 8 8 6 7 6 5 4 5 7 9 10 8 7 8 7 8 8 7 8 7 8 5 2 9 6 6 6 6 7
11 7 9 5 5 10 13 13 9 6 11 11 9 9 9 7 7 6 4 3 5 8 9 8 8 8 8 7 7 7 8 7 9 9 9 9 8 6 6 5 7 7 6
4 4 9 6 8 13 15 12 7 10 9 7 11 10 8 7 5 3 4 6 8 8 8 7 7 6 6 7 6 6 10 6 6 7 7 7 7 7 7 7 7 6 6
-3 10 8 9 13 17 15 12 10 10 12 13 9 9 8 4 3 5 6 7 7 7 8 8 7 6 6 5 6 6 8 9 8 8 7 10 9 9 7 5 6 5 5
1 -3 0 12 15 17 16 12 10 10 8 8 11 8 5 4 4 5 6 5 6 6 7 7 8 6 6 6 6 7 7 7 8 8 8 10 8 6 7 5 4 5 6
1 2 -0 15 15 12 9 9 8 8 9 13 8 5 4 4 3 4 4 4 5 6 6 7 8 6 6 6 7 7 8 8 9 8 8 6 6 4 4 5 6 7 7
Height
3149 3149 3148 3147 3146 3145 3144 3143 3142 3140 3140 3138 3137 3136 3135 3135 3135 3135 3135 3135 3137 3137 3138 3139 3140 3140 3141 3142 3142 3143 3144 3143 3143 3143 3143 3143 3143 3142 3142 3141 3141 3141 3141
3148 3148 3148 3147 3146 3145 3144 3143 3142 3141 3139 3138 3137 3136 3135 3134 3134 3134 3135 3135 3136 3137 3138 3138 3139 3139 3139 3140 3140 3141 3141 3141 3141 3142 3141 3141 3140 3139 3139 3138 3138 3138 3138
3148 3148 3147 3147 3147 3146 3145 3144 3143 3141 3139 3138 3137 3136 3135 3135 3134 3134 3134 3135 3136 3136 3136 3137 3137 3137 3138 3138 3138 3138 3138 3139 3139 3140 3139 3138 3138 3137 3136 3135 3135 3135 3135
3147 3147 3147 3148 3147 3147 3146 3145 3143 3142 3139 3138 3137 3135 3135 3135 3133 3133 3134 3134 3135 3135 3135 3135 3136 3136 3136 3137 3137 3137 3137 3137 3136 3137 3136 3135 3134 3134 3133 3133 3132 3132 3132
3147 3147 3147 3147 3147 3147 3146 3145 3143 3142 3139 3138 3137 3136 3135 3134 3133 3133 3133 3133 3133 3133 3134 3134 3134 3135 3135 3136 3135 3136 3135 3134 3133 3133 3133 3132 3132 3131 3130 3130 3129 3129 3129
3145 3146 3147 3147 3147 3147 3145 3145 3143 3141 3140 3139 3138 3136 3135 3134 3132 3132 3132 3131 3132 3132 3133 3133 3133 3133 3133 3133 3133 3133 3132 3131 3131 3130 3130 3130 3129 3128 3128 3127 3126 3126 3126
3143 3145 3146 3146 3146 3145 3145 3144 3143 3142 3140 3139 3137 3135 3133 3132 3131 3131 3131 3130 3131 3131 3131 3131 3131 3131 3131 3131 3131 3130 3130 3129 3128 3127 3128 3127 3126 3125 3125 3125 3125 3124 3123
3141 3142 3144 3145 3145 3144 3144 3143 3143 3142 3140 3139 3137 3135 3133 3133 3131 3130 3129 3130 3130 3130 3130 3130 3129 3130 3129 3129 3128 3128 3128 3126 3126 3125 3124 3124 3124 3123 3122 3122 3121 3121 3120
3138 3140 3142 3143 3143 3143 3143 3142 3142 3141 3140 3138 3136 3134 3133 3132 3132 3131 3130 3130 3130 3129 3129 3128 3128 3127 3127 3127 3126 3126 3125 3124 3123 3122 3121 3120 3120 3119 3119 3118 3117 3116 3116
3136 3137 3139 3141 3142 3142 3141 3141 3140 3140 3139 3137 3136 3134 3133 3132 3131 3131 3130 3130 3129 3129 3128 3128 3127 3126 3126 3125 3124 3123 3122 3121 3120 3119 3117 3117 3116 3115 3115 3114 3113 3113 3112
3134 3135 3137 3138 3139 3140 3139 3140 3139 3138 3137 3136 3135 3133 3133 3132 3131 3130 3129 3129 3129 3128 3127 3127 3126 3124 3123 3122 3121 3120 3119 3118 3117 3115 3114 3113 3112 3111 3110 3109 3108 3108 3107
3131 3132 3134 3135 3136 3137 3137 3137 3137 3137 3136 3135 3134 3133 3132 3131 3130 3129 3128 3128 3127 3127 3126 3124 3123 3122 3120 3119 3118 3117 3116 3115 3114 3112 3111 3110 3108 3107 3105 3104 3103 3102 3101
3128 3129 3131 3132 3133 3133 3134 3134 3134 3134 3134 3133 3132 3131 3131 3130 3129 3127 3126 3126 3125 3124 3123 3122 3120 3119 3117 3116 3115 3113 3112 3111 3109 3107 3106 3105 3104 3102 3101 3100 3097 3097 3096
3124 3125 3126 3128 3129 3130 3130 3131 3131 3131 3131 3130 3129 3128 3128 3128 3127 3126 3125 3124 3123 3122 3120 3119 3118 3116 3114 3112 3111 3109 3108 3106 3104 3102 3100 3099 3097 3096 3095 3092 3092 3092 3090
3120 3122 3124 3124 3125 3126 3127 3127 3128 3128 3127 3127 3126 3126 3126 3125 3124 3123 3122 3121 3120 3118 3117 3116 3114 3113 3110 3108 3106 3105 3102 3099 3098 3096 3095 3093 3092 3090 3088 3087 3086 3086 3083
3115 3117 3119 3120 3121 3122 3123 3123 3123 3123 3123 3123 3123 3122 3122 3121 3120 3120 3119 3118 3116 3115 3114 3113 3111 3110 3107 3104 3102 3099 3097 3095 3093 3091 3090 3088 3086 3084 3083 3081 3080 3079 3076
3109 3110 3113 3115 3116 3117 3118 3118 3118 3119 3119 3119 3119 3119 3118 3118 3117 3116 3115 3114 3113 3111 3110 3108 3107 3106 3103 3100 3097 3095 3092 3090 3089 3087 3085 3083 3081 3079 3077 3076 3074 3072 3070
3102 3104 3106 3108 3110 3111 3112 3112 3113 3114 3115 3116 3115 3114 3114 3114 3113 3112 3111 3110 3109 3107 3105 3104 3103 3101 3098 3095 3093 3091 3088 3086 3084 3082 3080 3078 3076 3074 3072 3070 3068 3066 3064
3095 3097 3100 3102 3103 3105 3105 3106 3108 3109 3110 3110 3110 3110 3110 3110 3109 3109 3108 3106 3105 3102 3101 3099 3098 3096 3094 3091 3088 3086 3084 3081 3079 3077 3076 3073 3071 3069 3066 3064 3061 3059 3057
3088 3091 3094 3095 3096 3097 3099 3101 3103 3104 3105 3105 3105 3105 3106 3106 3106 3105 3103 3102 3100 3098 3096 3095 3093 3091 3089 3087 3084 3082 3079 3076 3074 3071 3070 3067 3064 3062 3059 3056 3053 3051 3048
3082 3085 3088 3089 3090 3091 3093 3096 3097 3098 3100 3100 3101 3101 3101 3101 3101 3100 3099 3098 3096 3095 3093 3090 3088 3086 3083 3081 3079 3076 3073 3071 3068 3066 3063 3060 3057 3054 3052 3048 3045 3042 3039
3076 3079 3081 3083 3084 3085 3087 3089 3091 3092 3094 3096 3097 3097 3098 3098 3097 3096 3095 3094 3092 3090 3088 3085 3083 3080 3078 3075 3072 3069 3067 3067 3064 3061 3057 3054 3050 3047 3044 3040 3037 3033 3029
3070 3073 3074 3076 3077 3079 3081 3083 3085 3087 3089 3091 3093 3093 3094 3093 3093 3093 3092 3090 3088 3086 3083 3081 3078 3075 3072 3069 3065 3062 3056 3054 3050 3052 3051 3048 3043 3040 3036 3031 3027 3023 3018
3064 3067 3069 3070 3071 3072 3074 3077 3080 3083 3085 3088 3089 3089 3089 3090 3090 3089 3088 3086 3084 3082 3079 3076 3072 3069 3065 3062 3058 3054 3050 3045 3039 3035 3037 3037 3032 3028 3024 3021 3016 3011 3006
3057 3060 3063 3064 3065 3067 3069 3072 3075 3079 3081 3083 3085 3085 3086 3086 3086 3085 3084 3082 3079 3077 3073 3070 3066 3062 3058 3054 3050 3047 3043 3038 3033 3025 3018 3020 3020 3017 3012 3006 3001 2996 2991
3050 3054 3057 3059 3061 3063 3066 3069 3072 3075 3078 3080 3081 3081 3082 3082 3082 3081 3079 3077 3074 3071 3067 3064 3060 3056 3051 3047 3042 3037 3032 3027 3023 3017 3008 3003 2996 2997 2995 2992 2988 2982 2975